Content
SEND FEEDBACK

Daily
Averages
Monthly
Summary
United States of America

GLEN CANYON CITY, UTAH


Home > North America > United States > Utah
Elevation: 4133 feet     Latitude: 37 05N     Longitude: 111 40W

WEATHER
 
SELECT A DAY
Number of Records: 194,777;   Date Range: 1/1/95 - 8/12/14
 
SHARE

PRINT THIS DATA

[ ← Previous Day ]
WEATHER ALMANAC - FEBRUARY 6, 2013
[ Next Day → ]
[ °C ]   °F
Weather ElementAverageHighLow
Temperature45.5 °F57.9 °F (4:53 pm)37.9 °F (2:53 am)
Dewpoint28.5 °F30.9 °F (10:53 pm)26.1 °F (3:53 pm)
Humidity53.5 %70 % (4:53 am)30 % (3:53 pm)
Barometer29.93 in30.05 in (11:53 pm)29.86 in (2:53 pm)
Wind Speed1.7 mph6.9 mph (6:53 pm)
Weather ElementAverage
Visibility9.6 mi
Wind DirectionNE (40.4 °)

Weather ElementTotal
Precipitation---
Heating Degree Days17.1 (Base 65)
Averaged from 23 records on February 6, 2013
WEATHER CONDITIONS BREAKOUT
WIND DIRECTION BREAKOUT
WEATHER BY HOUR - FEBRUARY 6, 2013
[ °C ]   °F
Local TimeTemperatureDewpointHumidityBarometerVisibilityWind DirectionWind SpeedGust SpeedPrecipitationEventsConditions
1:53 AM39.0 °F27.0 °F62 %29.91 in10.0 miCalmClear
2:53 AM37.9 °F27.0 °F65 %29.91 in9.0 miCalmClear
3:53 AM37.9 °F28.0 °F68 %29.88 in10.0 miCalmClear
4:53 AM37.9 °F28.9 °F70 %29.88 in10.0 miSSE (160°)4.6 mphClear
5:53 AM39.0 °F28.9 °F67 %29.89 in10.0 miCalmClear
6:53 AM37.9 °F28.0 °F68 %29.91 in10.0 miCalmClear
7:53 AM39.9 °F28.0 °F63 %29.92 in10.0 miCalmClear
8:53 AM39.9 °F28.0 °F63 %29.94 in10.0 miNNW (330°)4.6 mphClear
9:53 AM42.1 °F28.0 °F58 %29.95 in10.0 miCalmScattered Clouds
10:53 AM44.1 °F30.0 °F58 %29.95 in10.0 miCalmPartly Cloudy
11:53 AM46.9 °F28.9 °F50 %29.94 in10.0 miNNE (20°)5.8 mphClear
12:53 PM50.0 °F28.9 °F44 %29.90 in10.0 miCalmClear
1:53 PM53.1 °F28.9 °F40 %29.88 in10.0 miNNE (30°)4.6 mphClear
2:53 PM55.0 °F27.0 °F34 %29.86 in10.0 miVariable4.6 mphClear
3:53 PM57.0 °F26.1 °F30 %29.86 in10.0 miCalmClear
4:53 PM57.9 °F26.1 °F30 %29.87 in10.0 miCalmClear
5:53 PM54.0 °F28.9 °F38 %29.92 in10.0 miNW (310°)4.6 mphMostly Cloudy
6:53 PM53.1 °F30.0 °F41 %29.95 in10.0 miNNE (30°)6.9 mphOvercast
7:53 PM48.9 °F28.9 °F46 %29.98 in10.0 miNE (50°)3.5 mphClear
8:53 PM46.9 °F28.9 °F50 %30.01 in10.0 miCalmClear
9:53 PM44.1 °F30.0 °F58 %30.04 in4.0 miCalmHaze
10:53 PM43.0 °F30.9 °F62 %30.04 in7.0 miCalmClear
11:53 PM42.1 °F30.9 °F65 %30.05 in10.0 miCalmClear
Hourly data recorded from KPGA, located miles away from Glen Canyon City, Utah







STORIES FROM OUR PARTNERS